Freeport, IL

6:55 PM CST on December 15, 2019 (GMT -0600)
Albertus

Weather History for KFEP - October, 2019

Change the Weather History Date:

Monday, October 28, 2019

  Actual Average Record
Temperature  
Mean Temperature 39 °F -  
Max Temperature 43 °F 58 °F 73 °F (1989)
Min Temperature 32 °F 36 °F 20 °F (1976)
Degree Days  
Heating Degree Days 26    
Moisture  
Dew Point 35 °F    
Average Humidity 81    
Maximum Humidity 98    
Minimum Humidity 67    
Precipitation  
Precipitation 0.01 in - - ()
Sea Level Pressure  
Sea Level Pressure 30.07 in    
Wind  
Wind Speed 5 mph (NW)    
Max Wind Speed 12 mph    
Max Gust Speed 20 mph    
Visibility 10 miles    
Events Rain , Snow    
Averages and records for this station are not official NWS values.
T = Trace of Precipitation, MM = Missing Value Source: NWS Daily Summary

Daily Weather History Graph

Daily Weather History Graph

Search for Another Location

Airport or City:

Astronomy

Oct. 28, 2019 Rise Set
Actual Time 7:26 AM CDT 5:57 PM CDT
Civil Twilight 6:57 AM CDT 6:26 PM CDT
Nautical Twilight 6:24 AM CDT 6:59 PM CDT
Astronomical Twilight 5:51 AM CDT 7:31 PM CDT
Moon 7:47 AM CDT (10/28) 6:42 PM CDT (10/28)
Length of Visible Light 11h 28m
Length of Day
10h 31m
New Moon, 0% of the Moon is Illuminated
Oct 28
New Moon
Nov 4
First Quarter
Nov 12
Full
Nov 19
Last Quarter
Nov 26
New

Hourly Weather History & Observations

Time (CDT) Temp. Windchill Dew Point Humidity Pressure Visibility Wind Dir Wind Speed Gust Speed Precip Events Conditions
12:15 AM 41.0 °F 34.7 °F 37.8 °F 88% 30.03 in 10.0 mi WNW 10.4 mph - N/A   Clear
12:35 AM 41.0 °F 36.4 °F 37.4 °F 87% 30.03 in 10.0 mi WNW 6.9 mph - N/A   Clear
12:55 AM 39.9 °F 35.8 °F 37.6 °F 91% 30.03 in 10.0 mi NW 5.8 mph - N/A   Clear
1:15 AM 39.4 °F - 37.6 °F 93% 30.03 in 10.0 mi Calm Calm - N/A   Clear
1:35 AM 38.8 °F 36.5 °F 37.4 °F 95% 30.04 in 10.0 mi WNW 3.5 mph - N/A   Clear
1:55 AM 37.9 °F 34.4 °F 37.4 °F 98% 30.04 in 10.0 mi WNW 4.6 mph - N/A   Scattered Clouds
2:15 AM 39.2 °F 35.9 °F 38.1 °F 96% 30.05 in 10.0 mi WNW 4.6 mph - N/A   Mostly Cloudy
2:35 AM 39.4 °F 36.1 °F 38.3 °F 96% 30.05 in 10.0 mi WNW 4.6 mph - N/A   Overcast
2:55 AM 39.7 °F 36.5 °F 38.3 °F 95% 30.05 in 10.0 mi NW 4.6 mph - N/A   Overcast
3:15 AM 40.3 °F 36.3 °F 38.5 °F 93% 30.05 in 10.0 mi NW 5.8 mph - N/A   Overcast
3:35 AM 40.5 °F 36.5 °F 38.1 °F 91% 30.04 in 10.0 mi NW 5.8 mph - N/A   Overcast
3:55 AM 40.5 °F 37.3 °F 38.3 °F 92% 30.04 in 10.0 mi NW 4.6 mph - N/A   Overcast
4:15 AM 40.6 °F - 37.9 °F 90% 30.04 in 10.0 mi Calm Calm - N/A   Overcast
4:35 AM 40.6 °F 37.5 °F 38.1 °F 91% 30.04 in 10.0 mi NW 4.6 mph - N/A   Overcast
4:55 AM 40.6 °F 38.6 °F 38.3 °F 91% 30.04 in 10.0 mi NW 3.5 mph - N/A   Overcast
5:15 AM 40.6 °F 37.5 °F 37.8 °F 89% 30.05 in 10.0 mi NW 4.6 mph - N/A   Overcast
5:35 AM 40.8 °F 38.8 °F 37.8 °F 89% 30.05 in 10.0 mi NW 3.5 mph - N/A   Overcast
5:55 AM 40.8 °F 37.8 °F 37.6 °F 88% 30.06 in 10.0 mi NW 4.6 mph - N/A   Overcast
6:15 AM 41.0 °F 37.1 °F 37.0 °F 86% 30.06 in 10.0 mi WNW 5.8 mph - N/A   Overcast
6:35 AM 41.0 °F 38.0 °F 36.7 °F 85% 30.06 in 10.0 mi NW 4.6 mph - N/A   Overcast
6:55 AM 41.0 °F 38.0 °F 36.5 °F 84% 30.07 in 10.0 mi WNW 4.6 mph - N/A   Overcast
7:15 AM 40.8 °F 38.8 °F 36.5 °F 85% 30.08 in 10.0 mi WNW 3.5 mph - N/A   Overcast
7:35 AM 40.6 °F 36.7 °F 37.0 °F 87% 30.09 in 10.0 mi West 5.8 mph - N/A   Overcast
7:55 AM 40.5 °F 37.3 °F 36.7 °F 86% 30.09 in 10.0 mi WNW 4.6 mph - N/A   Overcast
8:15 AM 40.5 °F 36.5 °F 36.5 °F 86% 30.10 in 10.0 mi WNW 5.8 mph - N/A   Overcast
8:35 AM 40.5 °F 35.8 °F 35.6 °F 83% 30.10 in 10.0 mi WNW 6.9 mph - N/A   Overcast
8:55 AM 40.3 °F 34.9 °F 35.6 °F 83% 30.10 in 10.0 mi NW 8.1 mph - N/A   Overcast
9:15 AM 40.5 °F 36.5 °F 35.4 °F 82% 30.10 in 10.0 mi NW 5.8 mph - N/A   Overcast
9:35 AM 40.5 °F 35.8 °F 35.2 °F 82% 30.10 in 10.0 mi NW 6.9 mph - N/A   Overcast
9:55 AM 40.3 °F 34.9 °F 35.4 °F 83% 30.10 in 10.0 mi WNW 8.1 mph - N/A   Overcast
10:15 AM 40.5 °F 35.8 °F 35.8 °F 83% 30.10 in 10.0 mi NW 6.9 mph - N/A   Overcast
10:35 AM 40.5 °F 35.8 °F 35.2 °F 82% 30.10 in 10.0 mi NW 6.9 mph - N/A   Overcast
10:55 AM 40.6 °F 36.7 °F 34.9 °F 80% 30.10 in 10.0 mi NNW 5.8 mph - N/A   Overcast
11:15 AM 40.8 °F 36.2 °F 34.9 °F 79% 30.10 in 10.0 mi NW 6.9 mph - N/A   Overcast
11:35 AM 41.4 °F 39.4 °F 35.4 °F 79% 30.11 in 10.0 mi NNW 3.5 mph - N/A   Overcast
11:55 AM 41.4 °F 37.6 °F 35.2 °F 79% 30.11 in 10.0 mi WNW 5.8 mph - N/A   Overcast
12:15 PM 41.9 °F 39.0 °F 35.8 °F 79% 30.10 in 10.0 mi WNW 4.6 mph - N/A   Overcast
12:35 PM 41.7 °F 39.8 °F 35.6 °F 79% 30.10 in 10.0 mi NW 3.5 mph - N/A   Overcast
12:55 PM 42.1 °F 38.4 °F 35.6 °F 78% 30.09 in 10.0 mi WNW 5.8 mph - N/A   Overcast
1:15 PM 42.1 °F 40.2 °F 35.6 °F 78% 30.09 in 10.0 mi NW 3.5 mph - N/A   Overcast
1:35 PM 42.3 °F 39.4 °F 34.7 °F 75% 30.09 in 10.0 mi WNW 4.6 mph - N/A   Overcast
1:55 PM 42.3 °F 39.4 °F 34.9 °F 75% 30.08 in 10.0 mi NW 4.6 mph - N/A   Overcast
2:15 PM 42.1 °F 40.2 °F 34.5 °F 75% 30.08 in 10.0 mi NW 3.5 mph - N/A   Overcast
2:35 PM 42.6 °F 39.9 °F 34.3 °F 73% 30.07 in 10.0 mi NW 4.6 mph - N/A   Overcast
2:55 PM 42.8 °F 39.3 °F 34.7 °F 73% 30.08 in 10.0 mi NW 5.8 mph - N/A   Overcast
3:15 PM 42.8 °F 38.0 °F 34.5 °F 73% 30.08 in 10.0 mi NW 8.1 mph - N/A   Overcast
3:35 PM 42.6 °F 39.0 °F 34.0 °F 71% 30.08 in 10.0 mi WNW 5.8 mph - N/A   Overcast
3:55 PM 42.3 °F 38.6 °F 33.8 °F 72% 30.08 in 10.0 mi NW 5.8 mph - N/A   Overcast
4:15 PM 41.9 °F 37.5 °F 32.7 °F 70% 30.07 in 10.0 mi WNW 6.9 mph - N/A   Overcast
4:35 PM 41.9 °F 39.0 °F 32.7 °F 70% 30.07 in 10.0 mi WNW 4.6 mph - N/A   Overcast
4:55 PM 41.5 °F 39.6 °F 32.2 °F 69% 30.08 in 10.0 mi WNW 3.5 mph - N/A   Overcast
5:15 PM 41.4 °F 39.4 °F 32.5 °F 71% 30.07 in 10.0 mi WNW 3.5 mph - N/A   Overcast
5:35 PM 41.0 °F 38.0 °F 32.0 °F 70% 30.08 in 10.0 mi WNW 4.6 mph - N/A   Overcast
5:55 PM 40.8 °F 37.8 °F 33.1 °F 74% 30.08 in 10.0 mi WNW 4.6 mph - N/A   Overcast
6:15 PM 40.5 °F 37.3 °F 32.9 °F 74% 30.08 in 10.0 mi WNW 4.6 mph - N/A   Overcast
6:35 PM 40.1 °F 36.9 °F 32.0 °F 73% 30.08 in 10.0 mi NW 4.6 mph - N/A   Overcast
6:55 PM 40.1 °F - 32.0 °F 73% 30.08 in 10.0 mi Calm Calm - N/A   Overcast
7:15 PM 39.9 °F 37.8 °F 32.0 °F 73% 30.08 in 10.0 mi WNW 3.5 mph - N/A   Overcast
7:35 PM 39.6 °F 37.4 °F 32.2 °F 75% 30.08 in 10.0 mi NW 3.5 mph - N/A   Overcast
7:55 PM 39.4 °F 37.2 °F 31.8 °F 74% 30.06 in 10.0 mi North 3.5 mph - N/A   Overcast
8:15 PM 39.2 °F - 32.2 °F 76% 30.04 in 10.0 mi Calm Calm - N/A   Overcast
8:55 PM 39.2 °F 37.0 °F 31.3 °F 73% 30.06 in 10.0 mi NNW 3.5 mph - N/A   Overcast
9:15 PM 39.2 °F 37.0 °F 31.3 °F 73% 30.07 in 10.0 mi NW 3.5 mph - N/A   Overcast
9:35 PM 39.0 °F 36.8 °F 31.3 °F 74% 30.06 in 10.0 mi NNW 3.5 mph - N/A   Overcast
9:55 PM 39.0 °F 36.8 °F 31.3 °F 74% 30.06 in 10.0 mi NNW 3.5 mph - N/A   Overcast
10:15 PM 38.8 °F 33.2 °F 30.4 °F 72% 30.06 in 10.0 mi NW 8.1 mph - N/A   Overcast
10:35 PM 38.7 °F 33.6 °F 28.6 °F 67% 30.05 in 10.0 mi NNW 6.9 mph - N/A   Overcast
10:55 PM 38.3 °F 32.5 °F 28.9 °F 69% 30.08 in 10.0 mi NW 8.1 mph - N/A   Overcast
11:15 PM 36.7 °F 31.2 °F 29.5 °F 75% 30.08 in 5.0 mi NW 6.9 mph - N/A Rain Light Rain
11:55 PM 32.7 °F 23.9 °F 32.2 °F 98% 30.10 in 1.8 mi NNW 11.5 mph 19.6 mph 0.01 in Snow Light Snow